Location: Acheville
(50.3840°N, 2.8827°E)
Time: 23:31:54
(UTC+00:00)

FENGYUN 1C DEB - Pass Details

Date: 06 February 2023
Orbit: 634 x 940 km, 98.3° (Epoch: 28 March)

Event Time Altitude Azimuth Distance (km) Brightness Sun altitude
Rises 05:19:03 0° 28° (NNE) 2,945 ? -18.9°
Reaches altitude 10° 05:21:54 10° 48° (NE) 2,037 ? -18.5°
Maximum altitude 05:24:54 18° 91° (E) 1,596 ? -18.0°
Drops below altitude 10° 05:27:56 10° 134° (SE) 2,074 ? -17.5°
Sets 05:30:51 0° 154° (SSE) 3,021 ? -17.0°
